sat.trackr.live / text

‹ back to catalog

STARLINK-4424

NORAD 53681 · 2022-105AK

PAYLOAD ACTIVE UNKNOWN

§ Identity

Operator
Country
US
Launch date
2022-08-31
Launch site
AFWTR
Launch vehicle
Mass (kg)
RCS (m²)

Purposes: comms

External: N2YO · Heavens-Above · Gunter

§ Orbital elements

Epoch: 2026-05-25T04:00:03.998880Z

Period
93.20 min
Inclination
97.6054°
Eccentricity
0.0001252
Mean motion
15.45043108 rev/d
Perigee alt
430.4 km
Apogee alt
432.1 km
Semi-major
6,809.4 km
B*
8.6383e-3
RAAN
27.5143°
Arg perigee
91.9794°
Mean anomaly
133.3331°
Rev number
588

§ Raw data

STARLINK-44241 53681U 22105AK  26145.16671295  .00430596  00000+0  86383-2 0  99942 53681  97.6054  27.5143 0001252  91.9794 133.3331 15.45043108  5886

JSON: /api/v1/satellites/53681 · /tle

For live sub-satellite position, see the globe view (requires WebGL).

§ Visibility from observer

Set your observer location to see the next 7 days of passes ≥ 10°. The values pass through the URL so the page stays shareable.

No JS? Fill the form by hand. The geolocation button needs JavaScript.